Weather History for Port Isabel, TX

Change the Weather History Date:

Wednesday, February 6, 2013

  Actual Average Record
Temperature  
Mean Temperature 78 °F -  
Max Temperature 84 °F - - ()
Min Temperature 70 °F - - ()
Cooling Degree Days 12    
Growing Degree Days 28 (Base 50)    
Moisture  
Dew Point 69 °F    
Average Humidity 81    
Maximum Humidity 94    
Minimum Humidity 55    
Precipitation  
Precipitation 0.00 in - - ()
Sea Level Pressure  
Sea Level Pressure 29.89 in    
Wind  
Wind Speed 10 mph (SE)    
Max Wind Speed 22 mph    
Max Gust Speed 29 mph    
Visibility 7 miles    
Events      
T = Trace of Precipitation, MM = Missing Value Source: NWS Daily Summary

Daily Weather History Graph

Daily Weather History Graph

Search for Another Location

Airport:

Trip Planner

Search our weather history database for the weather conditions in past years. The results will help you decide how hot, cold, wet, or windy it might be!

Date:

Astronomy

Feb. 06, 2013 Rise Set
Actual Time 7:10 AM CST 6:16 PM CST
Civil Twilight 6:46 AM CST 6:40 PM CST
Nautical Twilight 6:19 AM CST 7:07 PM CST
Astronomical Twilight 5:52 AM CST 7:34 PM CST
Moon 3:45 AM CST (2/6) 2:46 PM CST (2/6)
Length of Visible Light 11h 53m
Length of Day
11h 05m
Waning Crescent, 17% of the Moon is Illuminated
Feb 6
Waning Crescent
Feb 10
New
Feb 17
First Quarter
Feb 25
Full
Mar 4
Last Quarter

Hourly Weather History & Observations

Time (CST) Temp. Heat Index Dew Point Humidity Pressure Visibility Wind Dir Wind Speed Gust Speed Precip Events Conditions
12:33 AM 73.4 °F - 69.8 °F 88% 29.90 in 7.0 mi SSE 12.7 mph - N/A   Mostly Cloudy
12:46 AM 73.4 °F - 69.8 °F 88% 29.91 in 8.0 mi SSE 10.4 mph - N/A   Scattered Clouds
12:58 AM 73.4 °F - 69.8 °F 88% 29.93 in 8.0 mi SSE 9.2 mph - N/A   Mostly Cloudy
1:08 AM 73.4 °F - 69.8 °F 88% 29.94 in 8.0 mi SE 5.8 mph - N/A   Mostly Cloudy
1:27 AM 73.4 °F - 69.8 °F 88% 29.94 in 8.0 mi ESE 3.5 mph - N/A   Overcast
1:53 AM 73.0 °F - 69.1 °F 87% 29.94 in 8.0 mi East 5.8 mph - N/A   Overcast
2:01 AM 73.4 °F - 69.8 °F 88% 29.93 in 7.0 mi East 5.8 mph - N/A   Overcast
2:44 AM 73.4 °F - 69.8 °F 88% 29.91 in 7.0 mi ESE 8.1 mph - N/A   Overcast
2:53 AM 73.0 °F - 69.1 °F 87% 29.91 in 7.0 mi ESE 8.1 mph - N/A   Overcast
3:25 AM 71.6 °F - 69.8 °F 94% 29.91 in 7.0 mi ESE 6.9 mph - N/A   Overcast
3:53 AM 72.0 °F - 69.1 °F 91% 29.91 in 7.0 mi ESE 8.1 mph - N/A   Overcast
4:29 AM 73.4 °F - 69.8 °F 88% 29.91 in 7.0 mi ESE 8.1 mph - N/A   Overcast
4:53 AM 72.0 °F - 69.1 °F 91% 29.91 in 7.0 mi East 8.1 mph - N/A   Overcast
5:12 AM 71.6 °F - 68.0 °F 88% 29.90 in 7.0 mi East 8.1 mph - N/A   Overcast
5:53 AM 72.0 °F - 69.1 °F 91% 29.91 in 7.0 mi East 8.1 mph - N/A   Overcast
6:18 AM 71.6 °F - 68.0 °F 88% 29.91 in 7.0 mi ESE 8.1 mph - N/A   Overcast
6:28 AM 71.6 °F - 68.0 °F 88% 29.91 in 7.0 mi ESE 8.1 mph - N/A   Overcast
6:51 AM 71.6 °F - 69.8 °F 94% 29.91 in 7.0 mi ESE 9.2 mph - N/A   Overcast
6:53 AM 72.0 °F - 69.1 °F 91% 29.91 in 7.0 mi ESE 9.2 mph - N/A   Overcast
7:12 AM 71.6 °F - 69.8 °F 94% 29.90 in 7.0 mi ESE 9.2 mph - N/A   Overcast
7:43 AM 73.4 °F - 69.8 °F 88% 29.91 in 6.0 mi ESE 9.2 mph - N/A   Overcast
7:53 AM 73.0 °F - 69.1 °F 87% 29.91 in 6.0 mi ESE 10.4 mph - N/A   Overcast
8:16 AM 73.4 °F - 69.8 °F 88% 29.92 in 6.0 mi ESE 11.5 mph - N/A   Overcast
8:31 AM 73.4 °F - 69.8 °F 88% 29.92 in 6.0 mi ESE 10.4 mph - N/A   Overcast
8:53 AM 73.9 °F - 70.0 °F 87% 29.92 in 6.0 mi SE 10.4 mph - N/A   Overcast
8:58 AM 73.4 °F - 69.8 °F 88% 29.92 in 6.0 mi SE 11.5 mph - N/A   Overcast
9:53 AM 75.9 °F - 70.0 °F 82% 29.93 in 7.0 mi SE 15.0 mph 24.2 mph N/A   Overcast
10:08 AM 78.8 °F - 69.8 °F 74% 29.92 in 7.0 mi SE 17.3 mph 26.5 mph N/A   Overcast
10:16 AM 78.8 °F - 69.8 °F 74% 29.92 in 7.0 mi SSE 20.7 mph 27.6 mph N/A   Mostly Cloudy
10:35 AM 78.8 °F - 69.8 °F 74% 29.92 in 7.0 mi SE 18.4 mph 25.3 mph N/A   Mostly Cloudy
10:50 AM 78.8 °F - 69.8 °F 74% 29.91 in 7.0 mi SSE 19.6 mph 25.3 mph N/A   Overcast
10:53 AM 79.0 °F - 70.0 °F 74% 29.91 in 8.0 mi SSE 15.0 mph 25.3 mph N/A   Overcast
11:51 AM 82.4 °F 86.3 °F 69.8 °F 66% 29.88 in 8.0 mi SSE 21.9 mph 27.6 mph N/A   Mostly Cloudy
11:53 AM 82.0 °F 85.5 °F 69.1 °F 65% 29.88 in 8.0 mi South 19.6 mph 27.6 mph N/A   Mostly Cloudy
12:53 PM 84.0 °F 87.0 °F 68.0 °F 58% 29.84 in 7.0 mi SSE 19.6 mph 28.8 mph N/A   Mostly Cloudy
1:30 PM 84.2 °F 86.6 °F 66.2 °F 55% 29.82 in 8.0 mi South 18.4 mph 25.3 mph N/A   Mostly Cloudy
1:41 PM 82.4 °F 85.4 °F 68.0 °F 62% 29.81 in 8.0 mi South 17.3 mph 28.8 mph N/A   Mostly Cloudy
1:53 PM 82.9 °F 85.4 °F 66.9 °F 58% 29.81 in 8.0 mi South 18.4 mph 27.6 mph N/A   Mostly Cloudy
2:53 PM 84.0 °F 86.3 °F 66.0 °F 55% 29.78 in 8.0 mi South 15.0 mph 28.8 mph N/A   Mostly Cloudy
3:53 PM 82.9 °F 85.4 °F 66.9 °F 58% 29.77 in 8.0 mi South 15.0 mph 24.2 mph N/A   Mostly Cloudy
4:53 PM 82.9 °F 85.4 °F 66.9 °F 58% 29.76 in 7.0 mi South 16.1 mph - N/A   Partly Cloudy
5:53 PM 79.0 °F - 68.0 °F 69% 29.78 in 7.0 mi SSE 13.8 mph - N/A   Partly Cloudy
7:53 PM 75.0 °F - 68.0 °F 79% 29.82 in 8.0 mi SSE 10.4 mph - N/A   Clear
8:53 PM 73.9 °F - 68.0 °F 82% 29.85 in 7.0 mi Calm Calm - N/A   Mostly Cloudy
9:53 PM 71.1 °F - 66.9 °F 87% 29.86 in 6.0 mi Calm Calm - N/A   Clear
10:19 PM 71.6 °F - 66.2 °F 83% 29.87 in 6.0 mi NW 3.5 mph - N/A   Haze
10:28 PM 71.6 °F - 66.2 °F 83% 29.87 in 7.0 mi Calm Calm - N/A   Mostly Cloudy
11:53 PM 70.0 °F - 66.9 °F 90% 29.87 in 5.0 mi Calm Calm - N/A   Mostly Cloudy